Regional Weather Roundup
Issued by NWS Cleveland, OH

Home | Current Version | Previous Version | Graphics & Text | Print | Product List | Glossary On
Versions: 1 2 3 4 5 6 7 8 9 10 11 12 13 14 15 16 17 18 19 20 21 22 23 24 25 26 27 28 29 30 31 32 33 34 35 36 37 38 39 40 41 42 43 44 45 46 47 48 49 50
000
ASUS41 KCLE 280410
RWRCLE
OHIO REGIONAL WEATHER ROUNDUP
NATIONAL WEATHER SERVICE CLEVELAND, OH
1100 PM EST FRI FEB 27 2015

NOTE: "FAIR" INDICATES FEW OR NO CLOUDS BELOW 12,000 FEET WITH NO
SIGNIFICANT WEATHER AND/OR OBSTRUCTIONS TO VISIBILITY.

OHZ001>008-015>018-024>027-034-035-043-044-280500-
   NORTHWEST OHIO

CITY           SKY/WX    TMP DP  RH WIND       PRES   REMARKS
DEFIANCE       CLEAR      2  -6  69 CALM      30.68S
FINDLAY        PTCLDY     4  -6  63 S3        30.66S
TOLEDO EXPRESS CLEAR      3  -6  66 CALM      30.68R
TOLEDO EXEC    CLEAR      6  -5  60 SW6       30.70R WCI  -4
LIMA           MOCLDY     7  -5  57 S7        30.65S WCI  -5
$$

OHZ009>014-019>023-028>033-038-089-280500-
   NORTHEAST OHIO

CITY           SKY/WX    TMP DP  RH WIND       PRES   REMARKS
CLE-HOPKINS    CLEAR      6  -3  66 S7        30.71R WCI  -6
CLE-LAKEFRONT  CLEAR     10  -2  58 SW8       30.69R WCI  -2
CUY CO. ARPT   CLEAR      3  -2  78 S5        30.67R WCI  -6
LORAIN-ELYRIA  PTCLDY     2  -4  76 SW5       30.68R WCI  -8
ASHTABULA      CLEAR     -6 -12  75 CALM      30.66R
AKRON-CANTON   MOCLDY     7  -5  57 CALM      30.64R
WOOSTER        MOCLDY   -10 -15  78 CALM      30.65R
MANSFIELD      MOCLDY     4  -5  66 W3        30.62S
YOUNGSTOWN     PTCLDY     2  -5  72 CALM      30.64R
$$

OHZ042-051>053-060>062-070>072-077>081-280500-
  SOUTHWEST OHIO

CITY           SKY/WX    TMP DP  RH WIND       PRES   REMARKS
CINC-COVINGTON CLOUDY    16   2  54 N3        30.64S
CINC-LUNKEN    CLOUDY    14   1  56 NE5       30.70S WCI   6
HAMILTON       CLOUDY     9   2  73 CALM      30.69S
DAYTON         MOCLDY    10  -1  61 SE6       30.66R WCI   0
WRIGHT-PAT AFB MOCLDY    10  -1  61 N2        30.67S
DAYTON GENERAL CLOUDY    13  -1  54 E5        30.64F WCI   5
WILMINGTON     CLOUDY     9  -3  58 E6        30.64F WCI  -1
$$

OHZ036-037-039>041-045>050-054>059-063>069-073>076-082>088-280500-
  CENTRAL AND SOUTHEAST OHIO

CITY           SKY/WX    TMP DP  RH WIND       PRES   REMARKS
COLUMBUS       CLOUDY    11  -2  56 CALM      30.68S
OSU AIRPORT    MOCLDY     9  -1  64 CALM      30.67S
BOLTON FIELD   MOCLDY   N/A N/A N/A N3        30.67F
RICKENBACK AFB MOCLDY     7  -2  65 CALM      30.68S
NEWARK         MOCLDY     2  -5  72 CALM      30.67R
MARION         MOCLDY    -1  -9  68 CALM      30.66S
LANCASTER      MOCLDY     4  -1  80 CALM      30.68S
ZANESVILLE     MOCLDY     8   0  69 CALM      30.67R
NEW PHILLY     PTCLDY     5  -4  66 CALM      30.68R
$$


USA.gov is the U.S. government's official web portal to all federal, state and local government web resources and services.